Starlink 36137

operational
NORAD ID: 67033 Int'l Des: 2025-294 Owner: SPXS Country: US Constellation: starlink
NOTLE

About Starlink 36137

Description loading...

Live Position

Loading 3D Globe...

Upcoming Passes

Altitude History

Altitude vs Time

uPlot chart will show altitude changes over time

Two-Line Element Set

1 67033U 25294D 26047.34730516 .00052357 00000-0 12508-2 0 9999
2 67033 42.9970 158.7388 0000891 219.3189 140.7603 15.40729119 11533
Epoch: Feb 16, 2026 • Age: 9 hours

Current Status

Altitude 442.6 km
Velocity 7.65 km/s
Sub-Earth Point 6.31°N, 69.55°W
Launch Date Dec 11, 2025
Age 0.1 years
Type internet

Technical Details

Classification Payload
Mass 575.00 kg
Dry Mass 530.00 kg
Total Mass 575.00 kg
Length 0.30 m
Diameter 4.10 m
Span 29.00 m
Shape Box + pan
Manufacturer SPXS
Bus Type Starlink V2MO
Phase Status In Orbit
Owner/State SPXS/US

Large Constellations

Loading constellations...